Вернуться в каталог

DELTA 1 DEB

АктивенPO
NORAD 21290·DEBRIS·🇺🇸 United States

Запущен Jun 12, 1975 с Vandenberg Space Force Base

Loading…

Ближайшие Пролёты (ближайшие 24 часа)

TLE

СвежийSource: Space-Track

Эпоха: Sep 14, 2026, 14:54 UTC

1 21290U 75052AB  26257.62121931  .00000009  00000-0  19047-3 0  9993
2 21290  99.5382 141.0523 0512232 344.2935  40.9027 12.43362454603952

Отслеживайте DELTA 1 DEB в реальном времени с AllMySat

Download on the App Store